TimeCDT,TemperatureF,Dew PointF,Humidity,Sea Level PressureIn,VisibilityMPH,Wind Direction,Wind SpeedMPH,Gust SpeedMPH,PrecipitationIn,Events,Conditions,WindDirDegrees,DateUTC
12:53 AM,55.9,43.0,62,30.22,10.0,South,6.9,-,N/A,,Clear,180,2014-04-11 05:53:00
1:53 AM,54.0,44.1,69,30.21,10.0,South,3.5,-,N/A,,Clear,180,2014-04-11 06:53:00
2:53 AM,53.1,44.1,71,30.21,10.0,Calm,Calm,-,N/A,,Clear,0,2014-04-11 07:53:00
3:53 AM,51.1,44.1,77,30.21,10.0,Calm,Calm,-,N/A,,Clear,0,2014-04-11 08:53:00
4:53 AM,48.0,44.1,86,30.21,10.0,Calm,Calm,-,N/A,,Clear,0,2014-04-11 09:53:00
5:53 AM,48.0,44.1,86,30.22,10.0,Calm,Calm,-,N/A,,Clear,0,2014-04-11 10:53:00
6:53 AM,48.9,45.0,86,30.25,10.0,East,3.5,-,N/A,,Clear,100,2014-04-11 11:53:00
7:53 AM,54.0,48.9,83,30.27,10.0,Calm,Calm,-,N/A,,Clear,0,2014-04-11 12:53:00
8:53 AM,61.0,53.1,75,30.26,10.0,Calm,Calm,-,N/A,,Clear,0,2014-04-11 13:53:00
9:53 AM,66.9,54.0,63,30.27,10.0,SSW,4.6,-,N/A,,Clear,200,2014-04-11 14:53:00
10:53 AM,70.0,50.0,49,30.27,10.0,SW,8.1,-,N/A,,Partly Cloudy,230,2014-04-11 15:53:00
11:53 AM,71.1,48.0,44,30.25,10.0,South,5.8,-,N/A,,Clear,190,2014-04-11 16:53:00
12:53 PM,73.9,48.0,40,30.23,10.0,West,9.2,-,N/A,,Clear,270,2014-04-11 17:53:00
1:53 PM,75.0,48.9,40,30.20,10.0,SSW,6.9,-,N/A,,Clear,200,2014-04-11 18:53:00
2:53 PM,77.0,46.9,34,30.16,10.0,SSW,9.2,-,N/A,,Clear,210,2014-04-11 19:53:00
3:53 PM,78.1,48.9,36,30.14,10.0,South,8.1,-,N/A,,Clear,170,2014-04-11 20:53:00
4:53 PM,78.1,48.0,35,30.13,10.0,SSW,5.8,-,N/A,,Clear,210,2014-04-11 21:53:00
5:53 PM,75.9,50.0,40,30.12,10.0,South,5.8,-,N/A,,Partly Cloudy,170,2014-04-11 22:53:00
6:53 PM,72.0,53.1,51,30.12,10.0,SSE,3.5,-,N/A,,Clear,160,2014-04-11 23:53:00
7:53 PM,69.1,52.0,54,30.13,10.0,Calm,Calm,-,N/A,,Clear,0,2014-04-12 00:53:00
8:53 PM,64.0,54.0,70,30.15,10.0,Calm,Calm,-,N/A,,Clear,0,2014-04-12 01:53:00
9:53 PM,62.1,54.0,75,30.16,10.0,Calm,Calm,-,N/A,,Scattered Clouds,0,2014-04-12 02:53:00
10:53 PM,61.0,55.0,81,30.16,10.0,Calm,Calm,-,N/A,,Mostly Cloudy,0,2014-04-12 03:53:00
11:53 PM,63.0,54.0,72,30.17,10.0,South,3.5,-,N/A,,Mostly Cloudy,190,2014-04-12 04:53:00